{"data":{"norad_id":66379,"epoch":"2026-05-24T22:31:31.380960Z","epoch_age_seconds":81113,"freshness":"FRESH","line1":"1 66379U 25255D   26144.93855765  .00009341  00000+0  23067-3 0  9992","line2":"2 66379  52.9937 124.6651 0010815  74.1516 286.0678 15.41204168 30396","mean_motion":15.41204168,"eccentricity":0.0010815,"inclination_deg":52.9937,"raan_deg":124.6651,"arg_perigee_deg":74.1516,"mean_anomaly_deg":286.0678,"bstar":0.00023067,"rev_number":3039,"period_min":93.433435355205,"perigee_km":435.17768057408,"apogee_km":449.9308357655,"semimajor_km":6820.6912581698,"source":"CELESTRAK","updated_at":"2026-05-25T13:38:06.175146Z"}}